Madison, SD

1:51 AM CST on February 25, 2017 (GMT -0600)
Madison Municipal

Weather History for KMDS - February, 2012

Change the Weather History Date:

Friday, February 3, 2012

  Actual Average Record
Temperature  
Mean Temperature 29 °F -  
Max Temperature 32 °F 24 °F 32 °F (2012)
Min Temperature 26 °F 3 °F 0 °F (2011)
Degree Days  
Heating Degree Days 36    
Moisture  
Dew Point 29 °F    
Average Humidity 100    
Maximum Humidity 100    
Minimum Humidity 100    
Precipitation  
Precipitation 0.00 in - - ()
Sea Level Pressure  
Sea Level Pressure 30.35 in    
Wind  
Wind Speed 12 mph (ENE)    
Max Wind Speed 22 mph    
Max Gust Speed 23 mph    
Visibility 7 miles    
Events Fog    
Averages and records for this station are not official NWS values.
T = Trace of Precipitation, MM = Missing Value Source: NWS Daily Summary

Daily Weather History Graph

Daily Weather History Graph

Search for Another Location

Airport or City:

Trip Planner

Search our weather history database for the weather conditions in past years. The results will help you decide how hot, cold, wet, or windy it might be!

Date:

Astronomy

Feb. 03, 2012 Rise Set
Actual Time 7:44 AM CST 5:40 PM CST
Civil Twilight 7:13 AM CST 6:11 PM CST
Nautical Twilight 6:39 AM CST 6:45 PM CST
Astronomical Twilight 6:05 AM CST 7:19 PM CST
Moon 1:38 PM CST (2/3) 4:25 AM CST (2/3)
Length of Visible Light 10h 57m
Length of Day
9h 56m
Waxing Gibbous, 82% of the Moon is Illuminated
Feb 3
Waxing Gibbous
Feb 7
Full
Feb 14
Last Quarter
Feb 21
New
Feb 29
First Quarter

Hourly Weather History & Observations

Time (CST) Temp. Windchill Dew Point Humidity Pressure Visibility Wind Dir Wind Speed Gust Speed Precip Events Conditions
12:05 AM 28.4 °F 21.2 °F 28.4 °F 100% 30.29 in 10.0 mi ENE 6.9 mph - N/A   Clear
12:25 AM 28.4 °F 20.4 °F 28.4 °F 100% 30.29 in 10.0 mi NE 8.1 mph - N/A   Clear
12:45 AM 28.4 °F 21.2 °F 28.4 °F 100% 30.29 in 10.0 mi ENE 6.9 mph - N/A   Clear
1:05 AM 28.4 °F 20.4 °F 28.4 °F 100% 30.29 in 10.0 mi ENE 8.1 mph - N/A   Clear
1:25 AM 30.2 °F 21.3 °F 30.2 °F 100% 30.29 in 10.0 mi ENE 10.4 mph - N/A   Clear
1:45 AM 30.2 °F 21.3 °F 30.2 °F 100% 30.28 in 10.0 mi ENE 10.4 mph - N/A   Clear
2:05 AM 30.2 °F 20.8 °F 30.2 °F 100% 30.28 in 10.0 mi ENE 11.5 mph - N/A   Clear
2:25 AM 30.2 °F 20.8 °F 30.2 °F 100% 30.28 in 10.0 mi ENE 11.5 mph - N/A   Clear
2:45 AM 28.4 °F 19.1 °F 28.4 °F 100% 30.29 in 10.0 mi ENE 10.4 mph - N/A   Clear
3:05 AM 28.4 °F 19.1 °F 28.4 °F 100% 30.30 in 10.0 mi East 10.4 mph - N/A   Clear
3:25 AM 28.4 °F 19.7 °F 28.4 °F 100% 30.29 in 10.0 mi ENE 9.2 mph - N/A   Clear
3:45 AM 28.4 °F 19.7 °F 28.4 °F 100% 30.29 in 10.0 mi NE 9.2 mph - N/A   Clear
4:05 AM 28.4 °F 18.0 °F 28.4 °F 100% 30.31 in 10.0 mi NE 12.7 mph - N/A   Clear
4:25 AM 28.4 °F 18.5 °F 28.4 °F 100% 30.31 in 10.0 mi ENE 11.5 mph - N/A   Clear
4:45 AM 28.4 °F 18.0 °F 28.4 °F 100% 30.32 in 10.0 mi ENE 12.7 mph - N/A   Clear
5:05 AM 28.4 °F 18.0 °F 28.4 °F 100% 30.33 in 10.0 mi ENE 12.7 mph - N/A   Clear
5:25 AM 28.4 °F 17.0 °F 28.4 °F 100% 30.33 in 10.0 mi NE 15.0 mph - N/A   Clear
5:45 AM 28.4 °F 17.5 °F 28.4 °F 100% 30.32 in 10.0 mi ENE 13.8 mph 19.6 mph N/A   Partly Cloudy
6:05 AM 26.6 °F 14.7 °F 26.6 °F 100% 30.33 in 10.0 mi ENE 15.0 mph - N/A   Scattered Clouds
6:25 AM 26.6 °F 15.2 °F 26.6 °F 100% 30.34 in 7.0 mi ENE 13.8 mph 17.3 mph N/A   Mostly Cloudy
6:45 AM 26.6 °F 15.7 °F 26.6 °F 100% 30.34 in 6.0 mi ENE 12.7 mph - N/A   Overcast
7:05 AM 26.6 °F 14.7 °F 26.6 °F 100% 30.34 in 7.0 mi ENE 15.0 mph - N/A   Overcast
7:25 AM 26.6 °F 15.2 °F 26.6 °F 100% 30.35 in 5.0 mi ENE 13.8 mph - N/A   Overcast
7:45 AM 26.6 °F 15.7 °F 26.6 °F 100% 30.36 in 4.0 mi ENE 12.7 mph - N/A   Overcast
8:05 AM 26.6 °F 15.2 °F 26.6 °F 100% 30.36 in 2.5 mi NE 13.8 mph - N/A   Overcast
8:25 AM 26.6 °F 15.7 °F 26.6 °F 100% 30.37 in 2.5 mi ENE 12.7 mph - N/A   Overcast
8:45 AM 26.6 °F 14.7 °F 26.6 °F 100% 30.37 in 5.0 mi ENE 15.0 mph - N/A   Overcast
9:05 AM 26.6 °F 15.2 °F 26.6 °F 100% 30.37 in 3.0 mi ENE 13.8 mph - N/A   Overcast
9:25 AM 26.6 °F 14.3 °F 26.6 °F 100% 30.38 in 7.0 mi ENE 16.1 mph - N/A   Overcast
10:05 AM 28.4 °F 16.2 °F 28.4 °F 100% 30.37 in 2.0 mi ENE 17.3 mph 23.0 mph N/A   Overcast
10:25 AM 28.4 °F 16.6 °F 28.4 °F 100% 30.37 in 0.5 mi ENE 16.1 mph 21.9 mph N/A Fog Light Freezing Fog
10:45 AM 28.4 °F 14.7 °F 28.4 °F 100% 30.37 in 0.2 mi ENE 21.9 mph - N/A Fog Light Freezing Fog
11:05 AM 28.4 °F 17.0 °F 28.4 °F 100% 30.37 in 0.5 mi ENE 15.0 mph 20.7 mph N/A Fog Light Freezing Fog
11:25 AM 30.2 °F 18.5 °F 30.2 °F 100% 30.37 in 1.0 mi ENE 17.3 mph - N/A   Overcast
11:45 AM 30.2 °F 18.9 °F 30.2 °F 100% 30.37 in 1.2 mi ENE 16.1 mph - N/A   Overcast
12:05 PM 30.2 °F 18.1 °F 30.2 °F 100% 30.36 in 4.0 mi ENE 18.4 mph - N/A   Overcast
12:25 PM 32.0 °F 20.8 °F 32.0 °F 100% 30.37 in 7.0 mi ENE 17.3 mph - N/A   Overcast
12:45 PM 32.0 °F 21.6 °F 32.0 °F 100% 30.37 in 6.0 mi ENE 15.0 mph - N/A   Overcast
1:05 PM 32.0 °F 20.8 °F 32.0 °F 100% 30.36 in 10.0 mi ENE 17.3 mph 20.7 mph N/A   Overcast
1:25 PM 32.0 °F 20.8 °F 32.0 °F 100% 30.36 in 9.0 mi ENE 17.3 mph - N/A   Overcast
1:45 PM 32.0 °F 20.5 °F 32.0 °F 100% 30.36 in 9.0 mi ENE 18.4 mph - N/A   Overcast
2:05 PM 32.0 °F 20.1 °F 32.0 °F 100% 30.37 in 5.0 mi NE 19.6 mph - N/A   Overcast
2:25 PM 30.2 °F 18.5 °F 30.2 °F 100% 30.37 in 9.0 mi NE 17.3 mph - N/A   Overcast
2:45 PM 30.2 °F 18.5 °F 30.2 °F 100% 30.36 in 10.0 mi NE 17.3 mph 20.7 mph N/A   Overcast
3:05 PM 30.2 °F 19.3 °F 30.2 °F 100% 30.36 in 10.0 mi ENE 15.0 mph - N/A   Overcast
3:25 PM 30.2 °F 20.2 °F 30.2 °F 100% 30.37 in 10.0 mi NE 12.7 mph 19.6 mph N/A   Overcast
3:45 PM 32.0 °F 21.6 °F 32.0 °F 100% 30.37 in 10.0 mi ENE 15.0 mph 18.4 mph N/A   Overcast
4:05 PM 30.2 °F 19.3 °F 30.2 °F 100% 30.37 in 10.0 mi NE 15.0 mph 18.4 mph N/A   Overcast
4:25 PM 30.2 °F 18.1 °F 30.2 °F 100% 30.37 in 10.0 mi NE 18.4 mph 21.9 mph N/A   Overcast
4:45 PM 30.2 °F 19.3 °F 30.2 °F 100% 30.37 in 10.0 mi ENE 15.0 mph - N/A   Overcast
5:05 PM 28.4 °F 18.5 °F 28.4 °F 100% 30.37 in 9.0 mi ENE 11.5 mph - N/A   Overcast
5:25 PM 28.4 °F 18.5 °F 28.4 °F 100% 30.38 in 4.0 mi NE 11.5 mph - N/A   Overcast
5:45 PM 28.4 °F 18.0 °F 28.4 °F 100% 30.39 in 2.0 mi NE 12.7 mph - N/A   Overcast
6:05 PM 28.4 °F 16.6 °F 28.4 °F 100% 30.39 in 3.0 mi ENE 16.1 mph - N/A   Overcast
6:25 PM 28.4 °F 16.2 °F 28.4 °F 100% 30.39 in 1.5 mi NE 17.3 mph - N/A   Overcast
6:45 PM 28.4 °F 15.8 °F 28.4 °F 100% 30.40 in 8.0 mi NE 18.4 mph 23.0 mph N/A   Overcast
7:05 PM 28.4 °F 16.2 °F 28.4 °F 100% 30.40 in 4.0 mi NE 17.3 mph 20.7 mph N/A   Overcast
7:25 PM 28.4 °F 15.8 °F 28.4 °F 100% 30.40 in 7.0 mi NE 18.4 mph 21.9 mph N/A   Overcast
7:45 PM 28.4 °F 15.4 °F 28.4 °F 100% 30.40 in 5.0 mi NE 19.6 mph - N/A   Overcast
8:05 PM 28.4 °F 15.8 °F 28.4 °F 100% 30.40 in 1.0 mi NE 18.4 mph - N/A   Overcast
8:25 PM 26.6 °F 13.8 °F 26.6 °F 100% 30.40 in 2.5 mi ENE 17.3 mph - N/A   Overcast
8:45 PM 26.6 °F 16.2 °F 26.6 °F 100% 30.40 in 7.0 mi ENE 11.5 mph - N/A   Overcast
9:05 PM 26.6 °F 15.2 °F 26.6 °F 100% 30.39 in 1.8 mi ENE 13.8 mph 20.7 mph N/A   Overcast
9:25 PM 26.6 °F 15.2 °F 26.6 °F 100% 30.39 in 4.0 mi ENE 13.8 mph - N/A   Overcast
9:45 PM 26.6 °F 15.7 °F 26.6 °F 100% 30.38 in 7.0 mi ENE 12.7 mph - N/A   Overcast
10:05 PM 26.6 °F 17.5 °F 26.6 °F 100% 30.39 in 7.0 mi NE 9.2 mph - N/A   Overcast
10:25 PM 26.6 °F 14.7 °F 26.6 °F 100% 30.38 in 2.5 mi NE 15.0 mph - N/A   Overcast
10:45 PM 26.6 °F 15.2 °F 26.6 °F 100% 30.37 in 5.0 mi ENE 13.8 mph - N/A   Overcast
11:05 PM 26.6 °F 15.7 °F 26.6 °F 100% 30.37 in 1.0 mi NE 12.7 mph 18.4 mph N/A   Overcast
11:25 PM 26.6 °F 13.8 °F 26.6 °F 100% 30.37 in 6.0 mi NE 17.3 mph 23.0 mph N/A   Overcast
11:45 PM 26.6 °F 13.8 °F 26.6 °F 100% 30.36 in 2.0 mi NE 17.3 mph 21.9 mph N/A   Overcast